Location: Arbon
(43.0005°N, 0.7472°E)
Time: 16:33:18
(UTC+00:00)

Courier 1B Rocket - Pass Details

Date: 03 December 2020
Orbit: 920 x 1202 km, 28.2° (Epoch: 21 January)

Event Time Altitude Azimuth Distance (km) Brightness Sun altitude
Rises 07:16:20 0° 254° (WSW) 4,094 7.8 0.0°
Reaches altitude 10° 07:19:54 10° 240° (WSW) 3,129 7.4 0.6°
Maximum altitude 07:25:36 22° 193° (SSW) 2,307 7.3 1.4°
Drops below altitude 10° 07:31:12 10° 145° (SE) 3,057 9.1 2.3°
Sets 07:34:38 0° 131° (SE) 3,978 10.9 2.8°
